Tracking 19176 objects as of 28-May-2018
HD Live streaming from Space Station
objects crossing your sky now

FENGYUN 1C DEB

Track FENGYUN 1C DEB now!
10-day predictions


NORAD ID: 29827
Int'l Code: 1999-025DV
Perigee: 819.2 km
Apogee: 857.2 km
Inclination: 98.7 °
Period: 101.5 minutes
Semi major axis: 7209 km
RCS: 0.0148 m2 (small)
Launch date: May 10, 1999
Source: People's Republic of China (PRC)
Launch site: Taiyaun Space Center, China (TSC)

Note: This is SATELLITE DEBRIS
aabbcc
Your satellite tracking list
Your tracking list is empty




NASA's NSSDC Master Catalog

Two Line Element Set (TLE):
1 29827U 99025DV  18147.56627962 +.00000085 +00000-0 +62309-4 0  9994
2 29827 098.6959 180.8662 0026332 358.0220 131.1680 14.18310866587685
Source of the keplerian elements: AFSPC